Weather History for Athens, OH

Change the Weather History Date:

Tuesday, April 9, 2013

  Actual Average (KPKB) Record (KPKB)
Temperature  
Mean Temperature 64 °F 52 °F  
Max Temperature 83 °F 64 °F 86 °F (2001)
Min Temperature 46 °F 40 °F 17 °F (1972)
Degree Days  
Heating Degree Days 0 13  
Month to date heating degree days 132  
Since 1 July heating degree days 4593  
Cooling Degree Days 0 0  
Month to date cooling degree days 0  
Year to date cooling degree days 3  
Growing Degree Days 14 (Base 50)    
Moisture  
Dew Point 49 °F    
Average Humidity 58    
Maximum Humidity 89    
Minimum Humidity 27    
Precipitation  
Precipitation 0.00 in 0.11 in 0.54 in (2000)
Month to date precipitation 0.99  
Year to date precipitation 10.37  
Sea Level Pressure  
Sea Level Pressure 30.02 in    
Wind  
Wind Speed 3 mph (SW)    
Max Wind Speed 17 mph    
Max Gust Speed 25 mph    
Visibility 10 miles    
Events      
T = Trace of Precipitation, MM = Missing Value Source: NWS Daily Summary

Daily Weather History Graph

Daily Weather History Graph

Search for Another Location

Airport:

Trip Planner

Search our weather history database for the weather conditions in past years. The results will help you decide how hot, cold, wet, or windy it might be!

Date:

Astronomy

Apr. 09, 2013 Rise Set
Actual Time 7:00 AM EDT 8:00 PM EDT
Civil Twilight 6:33 AM EDT 8:28 PM EDT
Nautical Twilight 6:00 AM EDT 9:00 PM EDT
Astronomical Twilight 5:27 AM EDT 9:34 PM EDT
Moon 6:22 AM EDT (4/9) 7:35 PM EDT (4/9)
Length of Visible Light 13h 54m
Length of Day
13h 00m
Waning Crescent, 1% of the Moon is Illuminated
Apr 9
Waning Crescent
Apr 10
New
Apr 18
First Quarter
Apr 25
Full
May 2
Last Quarter

Hourly Weather History & Observations

Time (EDT) Temp. Heat Index Dew Point Humidity Pressure Visibility Wind Dir Wind Speed Gust Speed Precip Events Conditions
12:15 AM 54.5 °F - 46.9 °F 76% 30.02 in 10.0 mi Calm Calm - N/A   Clear
12:35 AM 54.7 °F - 47.1 °F 76% 30.02 in 10.0 mi Calm Calm - N/A   Clear
12:55 AM 53.2 °F - 46.9 °F 79% 30.03 in 10.0 mi Calm Calm - N/A   Clear
1:15 AM 52.0 °F - 46.2 °F 81% 30.02 in 10.0 mi Calm Calm - N/A   Clear
1:35 AM 51.8 °F - 46.9 °F 83% 30.02 in 10.0 mi Calm Calm - N/A   Clear
1:55 AM 51.4 °F - 46.4 °F 83% 30.03 in 10.0 mi Calm Calm - N/A   Clear
2:15 AM 49.5 °F - 45.0 °F 84% 30.02 in 10.0 mi Calm Calm - N/A   Clear
2:35 AM 49.1 °F - 45.5 °F 87% 30.03 in 10.0 mi Calm Calm - N/A   Clear
2:55 AM 50.4 °F - 45.7 °F 84% 30.02 in 10.0 mi Calm Calm - N/A   Clear
3:15 AM 48.4 °F - 44.8 °F 87% 30.02 in 10.0 mi Calm Calm - N/A   Clear
3:35 AM 49.5 °F - 46.0 °F 88% 30.02 in 10.0 mi Calm Calm - N/A   Clear
3:55 AM 49.3 °F - 45.9 °F 88% 30.03 in 10.0 mi Calm Calm - N/A   Clear
4:15 AM 48.2 °F - 44.6 °F 87% 30.04 in 10.0 mi Calm Calm - N/A   Clear
4:35 AM 47.8 °F - 44.1 °F 87% 30.04 in 10.0 mi Calm Calm - N/A   Clear
4:55 AM 46.8 °F - 43.7 °F 89% 30.06 in 10.0 mi Calm Calm - N/A   Scattered Clouds
5:15 AM 48.9 °F - 45.7 °F 89% 30.06 in 10.0 mi Calm Calm - N/A   Overcast
5:35 AM 49.3 °F - 46.0 °F 89% 30.06 in 10.0 mi Calm Calm - N/A   Overcast
5:55 AM 49.5 °F - 46.0 °F 88% 30.07 in 10.0 mi Calm Calm - N/A   Overcast
6:15 AM 50.4 °F - 46.6 °F 87% 30.07 in 10.0 mi Calm Calm - N/A   Overcast
6:35 AM 50.7 °F - 46.8 °F 86% 30.07 in 10.0 mi Calm Calm - N/A   Overcast
6:55 AM 50.9 °F - 46.9 °F 86% 30.08 in 10.0 mi Calm Calm - N/A   Overcast
7:15 AM 51.3 °F - 47.7 °F 87% 30.09 in 10.0 mi Calm Calm - N/A   Overcast
7:35 AM 52.0 °F - 48.0 °F 86% 30.09 in 10.0 mi Calm Calm - N/A   Overcast
7:55 AM 52.7 °F - 48.4 °F 85% 30.10 in 10.0 mi Calm Calm - N/A   Overcast
8:15 AM 54.7 °F - 49.3 °F 82% 30.09 in 10.0 mi Calm Calm - N/A   Overcast
8:35 AM 57.7 °F - 50.4 °F 76% 30.10 in 10.0 mi Calm Calm - N/A   Overcast
8:55 AM 60.4 °F - 50.4 °F 69% 30.10 in 10.0 mi Calm Calm - N/A   Overcast
9:15 AM 60.8 °F - 50.7 °F 69% 30.10 in 10.0 mi Calm Calm - N/A   Overcast
9:35 AM 63.7 °F - 50.4 °F 62% 30.10 in 10.0 mi SSW 5.8 mph - N/A   Mostly Cloudy
9:55 AM 64.9 °F - 50.2 °F 59% 30.11 in 10.0 mi SSW 4.6 mph - N/A   Overcast
10:15 AM 65.3 °F - 50.0 °F 58% 30.11 in 10.0 mi SSW 4.6 mph - N/A   Overcast
10:35 AM 67.1 °F - 50.7 °F 56% 30.10 in 10.0 mi South 5.8 mph - N/A   Overcast
10:55 AM 69.1 °F - 51.1 °F 53% 30.09 in 10.0 mi SSW 5.8 mph - N/A   Mostly Cloudy
11:15 AM 71.6 °F - 50.9 °F 48% 30.08 in 10.0 mi SSW 8.1 mph - N/A   Scattered Clouds
11:55 AM 74.7 °F - 52.2 °F 45% 30.07 in 10.0 mi SW 12.7 mph - N/A   Clear
12:15 PM 75.4 °F - 52.3 °F 44% 30.06 in 10.0 mi SW 6.9 mph 10.4 mph N/A   Clear
12:35 PM 77.4 °F - 53.6 °F 44% 30.05 in 10.0 mi SW 5.8 mph - N/A   Clear
12:55 PM 78.3 °F - 54.5 °F 44% 30.04 in 10.0 mi WSW 12.7 mph 20.7 mph N/A   Scattered Clouds
1:15 PM 79.0 °F - 54.5 °F 43% 30.03 in 10.0 mi SW 17.3 mph 25.3 mph N/A   Mostly Cloudy
1:35 PM 79.5 °F - 53.8 °F 41% 30.02 in 10.0 mi SW 13.8 mph 23.0 mph N/A   Scattered Clouds
1:55 PM 79.0 °F - 53.4 °F 41% 30.01 in 10.0 mi SW 10.4 mph 20.7 mph N/A   Mostly Cloudy
2:15 PM 81.5 °F 80.7 °F 53.1 °F 37% 30.00 in 10.0 mi SSW 13.8 mph 18.4 mph N/A   Scattered Clouds
2:35 PM 82.4 °F - 52.3 °F 35% 30.00 in 10.0 mi WSW 13.8 mph 20.7 mph N/A   Mostly Cloudy
2:55 PM 80.4 °F - 51.4 °F 36% 29.99 in 10.0 mi WSW 11.5 mph 19.6 mph N/A   Mostly Cloudy
3:15 PM 79.9 °F - 52.0 °F 38% 29.99 in 10.0 mi SSW 6.9 mph 19.6 mph N/A   Mostly Cloudy
3:35 PM 81.7 °F - 51.8 °F 35% 29.98 in 10.0 mi SW 12.7 mph 21.9 mph N/A   Mostly Cloudy
3:55 PM 82.0 °F - 50.7 °F 34% 29.97 in 10.0 mi South 15.0 mph 23.0 mph N/A   Scattered Clouds
4:15 PM 82.0 °F - 50.0 °F 33% 29.96 in 10.0 mi SW 12.7 mph 23.0 mph N/A   Scattered Clouds
4:35 PM 82.9 °F - 49.1 °F 31% 29.95 in 10.0 mi SSW 11.5 mph 20.7 mph N/A   Scattered Clouds
4:55 PM 83.1 °F - 47.5 °F 29% 29.94 in 10.0 mi WSW 17.3 mph 24.2 mph N/A   Scattered Clouds
5:15 PM 82.9 °F - 47.7 °F 29% 29.94 in 10.0 mi SSW 10.4 mph 19.6 mph N/A   Clear
5:35 PM 83.3 °F - 46.9 °F 28% 29.94 in 10.0 mi SSW 17.3 mph 24.2 mph N/A   Clear
5:55 PM 83.5 °F - 46.6 °F 27% 29.94 in 10.0 mi SSW 11.5 mph 21.9 mph N/A   Clear
6:15 PM 82.9 °F - 45.9 °F 27% 29.94 in 10.0 mi SW 15.0 mph 23.0 mph N/A   Clear
6:35 PM 82.6 °F - 45.9 °F 28% 29.95 in 10.0 mi SSW 10.4 mph 20.7 mph N/A   Clear
6:55 PM 81.5 °F - 46.9 °F 30% 29.95 in 10.0 mi SW 13.8 mph 23.0 mph N/A   Clear
7:15 PM 80.1 °F - 46.8 °F 31% 29.95 in 10.0 mi SW 10.4 mph 18.4 mph N/A   Clear
7:35 PM 78.8 °F - 47.1 °F 33% 29.96 in 10.0 mi SW 5.8 mph - N/A   Clear
7:55 PM 78.1 °F - 46.6 °F 33% 29.95 in 10.0 mi SW 4.6 mph - N/A   Clear
8:15 PM 77.2 °F - 46.4 °F 34% 29.95 in 10.0 mi SSW 4.6 mph - N/A   Clear
8:35 PM 76.5 °F - 46.6 °F 35% 29.96 in 10.0 mi SW 5.8 mph - N/A   Clear
8:55 PM 74.1 °F - 47.3 °F 38% 29.96 in 10.0 mi WSW 5.8 mph - N/A   Clear
9:15 PM 74.3 °F - 47.3 °F 38% 29.97 in 10.0 mi SW 5.8 mph - N/A   Clear
9:35 PM 74.1 °F - 48.2 °F 40% 29.98 in 10.0 mi SW 6.9 mph - N/A   Clear
9:55 PM 71.6 °F - 48.7 °F 44% 29.98 in 10.0 mi SW 5.8 mph - N/A   Clear
10:15 PM 70.3 °F - 49.1 °F 47% 29.98 in 10.0 mi WSW 3.5 mph - N/A   Clear
10:55 PM 67.3 °F - 49.6 °F 53% 29.98 in 10.0 mi Calm Calm - N/A   Clear
11:15 PM 65.8 °F - 49.5 °F 55% 29.98 in 10.0 mi WSW 3.5 mph - N/A   Clear
11:35 PM 67.5 °F - 50.0 °F 53% 29.98 in 10.0 mi WSW 6.9 mph - N/A   Clear
11:55 PM 69.1 °F - 50.7 °F 52% 29.98 in 10.0 mi WSW 6.9 mph - N/A   Clear